sat.trackr.live / text

‹ back to catalog

STARLINK-32017

NORAD 60032 · 2024-111S

PAYLOAD ACTIVE UNKNOWN

§ Identity

Operator
Country
US
Launch date
2024-06-08
Launch site
AFETR
Launch vehicle
Mass (kg)
RCS (m²)

Purposes: comms

External: N2YO · Heavens-Above · Gunter

§ Orbital elements

Epoch: 2026-09-21T08:28:33.555360Z

Period
93.85 min
Inclination
53.1604°
Eccentricity
0.0001182
Mean motion
15.34404251 rev/d
Perigee alt
461.9 km
Apogee alt
463.5 km
Semi-major
6,840.8 km
B*
1.0401e-5
RAAN
245.8738°
Arg perigee
82.5404°
Mean anomaly
277.5733°
Rev number
12,900

§ Raw data

STARLINK-320171 60032U 24111S   26264.35316615 -.00000025  00000+0  10401-4 0  99972 60032  53.1604 245.8738 0001182  82.5404 277.5733 15.34404251129009

JSON: /api/v1/satellites/60032 · /tle

For live sub-satellite position, see the globe view (requires WebGL).

§ Visibility from observer

Set your observer location to see the next 7 days of passes ≥ 10°. The values pass through the URL so the page stays shareable.

No JS? Fill the form by hand. The geolocation button needs JavaScript.